TimePST,TemperatureF,Dew PointF,Humidity,Sea Level PressureIn,VisibilityMPH,Wind Direction,Wind SpeedMPH,Gust SpeedMPH,PrecipitationIn,Events,Conditions,WindDirDegrees,DateUTC
12:15 AM,39.2,30.2,70,29.65,10.0,SW,13.8,-,N/A,,Clear,220,2012-11-21 08:15:00
12:35 AM,39.2,30.2,70,29.64,10.0,SSW,16.1,-,N/A,,Clear,200,2012-11-21 08:35:00
12:55 AM,41.0,28.4,61,29.62,10.0,SSW,20.7,27.6,N/A,,Clear,200,2012-11-21 08:55:00
1:15 AM,41.0,28.4,61,29.63,10.0,SSW,20.7,26.5,N/A,,Clear,200,2012-11-21 09:15:00
1:35 AM,41.0,28.4,61,29.61,10.0,SSW,13.8,-,N/A,,Clear,210,2012-11-21 09:35:00
1:55 AM,41.0,28.4,61,29.62,10.0,SW,15.0,-,N/A,,Clear,220,2012-11-21 09:55:00
2:15 AM,42.8,28.4,57,29.64,10.0,SW,29.9,35.7,N/A,Rain,Light Rain,220,2012-11-21 10:15:00
2:35 AM,39.2,32.0,75,29.69,2.5,SW,18.4,29.9,0.08,Rain,Rain,220,2012-11-21 10:35:00
2:55 AM,37.4,32.0,81,29.70,9.0,SW,12.7,21.9,0.11,Rain,Light Rain,220,2012-11-21 10:55:00
3:15 AM,37.4,32.0,81,29.72,4.0,WNW,8.1,16.1,N/A,Rain,Light Rain,290,2012-11-21 11:15:00
3:35 AM,35.6,30.2,81,29.72,10.0,NNW,3.5,-,N/A,Rain,Light Rain,340,2012-11-21 11:35:00
3:55 AM,35.6,30.2,81,29.75,8.0,NW,5.8,-,0.01,Rain,Light Rain,310,2012-11-21 11:55:00
4:15 AM,35.6,30.2,81,29.76,10.0,Calm,Calm,-,N/A,Rain,Light Rain,0,2012-11-21 12:15:00
4:35 AM,35.6,32.0,87,29.75,10.0,South,9.2,-,N/A,Rain,Light Rain,180,2012-11-21 12:35:00
4:55 AM,35.6,30.2,81,29.75,10.0,SSE,4.6,-,N/A,,Clear,160,2012-11-21 12:55:00
5:15 AM,35.6,28.4,75,29.77,10.0,SW,5.8,-,N/A,,Scattered Clouds,220,2012-11-21 13:15:00
5:35 AM,35.6,28.4,75,29.80,10.0,North,8.1,-,N/A,Rain,Light Rain,360,2012-11-21 13:35:00
5:55 AM,35.6,30.2,81,29.82,7.0,West,8.1,-,N/A,Rain,Light Rain,260,2012-11-21 13:55:00
6:15 AM,35.6,24.8,65,29.84,10.0,West,19.6,25.3,N/A,,Scattered Clouds,280,2012-11-21 14:15:00
6:35 AM,35.6,24.8,65,29.85,10.0,WSW,6.9,-,N/A,,Clear,250,2012-11-21 14:35:00
6:55 AM,35.6,24.8,65,29.86,10.0,SW,9.2,-,N/A,,Clear,220,2012-11-21 14:55:00
7:15 AM,33.8,26.6,75,29.87,10.0,SSW,9.2,-,N/A,,Clear,210,2012-11-21 15:15:00
7:35 AM,33.8,24.8,70,29.89,10.0,SSW,13.8,-,N/A,,Clear,210,2012-11-21 15:35:00
7:55 AM,33.8,24.8,70,29.89,10.0,SW,13.8,-,N/A,,Clear,220,2012-11-21 15:55:00
8:15 AM,35.6,23.0,60,29.90,10.0,SW,12.7,-,N/A,,Clear,230,2012-11-21 16:15:00
8:35 AM,35.6,23.0,60,29.91,10.0,SW,11.5,-,N/A,,Clear,230,2012-11-21 16:35:00
9:15 AM,37.4,23.0,56,29.94,10.0,SW,13.8,-,N/A,,Clear,230,2012-11-21 17:15:00
9:35 AM,37.4,24.8,60,29.95,10.0,SW,13.8,-,N/A,,Clear,230,2012-11-21 17:35:00
10:15 AM,39.2,24.8,56,29.96,10.0,SW,13.8,24.2,N/A,,Clear,230,2012-11-21 18:15:00
10:35 AM,39.2,24.8,56,29.98,10.0,SW,17.3,23.0,N/A,,Clear,220,2012-11-21 18:35:00
10:55 AM,39.2,23.0,52,29.97,10.0,SW,19.6,24.2,N/A,,Clear,230,2012-11-21 18:55:00
11:15 AM,39.2,23.0,52,29.98,10.0,SW,19.6,32.2,N/A,,Clear,220,2012-11-21 19:15:00
11:35 AM,39.2,23.0,52,29.98,10.0,WSW,18.4,26.5,N/A,,Clear,240,2012-11-21 19:35:00
11:55 AM,39.2,23.0,52,29.99,10.0,SW,17.3,24.2,N/A,,Clear,230,2012-11-21 19:55:00
12:15 PM,39.2,23.0,52,29.98,10.0,SW,17.3,24.2,N/A,,Clear,230,2012-11-21 20:15:00
12:35 PM,41.0,21.2,45,29.99,10.0,SW,18.4,-,N/A,,Clear,220,2012-11-21 20:35:00
12:55 PM,41.0,21.2,45,30.00,10.0,WSW,17.3,29.9,N/A,,Clear,240,2012-11-21 20:55:00
1:15 PM,41.0,21.2,45,30.00,10.0,SW,13.8,23.0,N/A,,Clear,230,2012-11-21 21:15:00
1:55 PM,41.0,19.4,42,30.01,10.0,WSW,11.5,20.7,N/A,,Partly Cloudy,240,2012-11-21 21:55:00
2:15 PM,41.0,19.4,42,30.02,10.0,SW,15.0,21.9,N/A,,Partly Cloudy,230,2012-11-21 22:15:00
2:35 PM,41.0,21.2,45,30.03,10.0,WSW,12.7,21.9,N/A,,Partly Cloudy,240,2012-11-21 22:35:00
2:55 PM,39.2,23.0,52,30.04,10.0,WSW,12.7,-,N/A,,Partly Cloudy,250,2012-11-21 22:55:00
3:15 PM,41.0,23.0,49,30.05,10.0,WSW,9.2,-,N/A,,Clear,240,2012-11-21 23:15:00
3:35 PM,39.2,23.0,52,30.06,10.0,SW,6.9,-,N/A,,Clear,220,2012-11-21 23:35:00
3:55 PM,39.2,23.0,52,30.07,10.0,SSW,5.8,-,N/A,,Clear,210,2012-11-21 23:55:00
4:15 PM,39.2,23.0,52,30.08,10.0,SW,10.4,-,N/A,,Clear,220,2012-11-22 00:15:00
4:35 PM,37.4,23.0,56,30.08,10.0,SSW,5.8,-,N/A,,Partly Cloudy,200,2012-11-22 00:35:00
4:55 PM,39.2,23.0,52,30.10,10.0,NNE,5.8,-,N/A,,Mostly Cloudy,30,2012-11-22 00:55:00
5:15 PM,35.6,26.6,70,30.11,10.0,NNE,5.8,-,N/A,Rain,Light Rain,20,2012-11-22 01:15:00
5:35 PM,35.6,26.6,70,30.13,10.0,Calm,Calm,-,N/A,Rain,Light Rain,0,2012-11-22 01:35:00
5:55 PM,33.8,26.6,75,30.14,10.0,ESE,4.6,-,N/A,Rain,Light Rain,110,2012-11-22 01:55:00
6:15 PM,35.6,26.6,70,30.14,10.0,ESE,3.5,-,N/A,,Scattered Clouds,110,2012-11-22 02:15:00
6:35 PM,33.8,26.6,75,30.15,10.0,ENE,6.9,-,N/A,,Mostly Cloudy,60,2012-11-22 02:35:00
6:55 PM,33.8,24.8,70,30.16,10.0,ENE,6.9,-,N/A,,Mostly Cloudy,70,2012-11-22 02:55:00
7:15 PM,35.6,23.0,60,30.17,10.0,ESE,4.6,-,N/A,,Scattered Clouds,110,2012-11-22 03:15:00
7:35 PM,33.8,23.0,65,30.18,10.0,East,4.6,-,N/A,,Scattered Clouds,90,2012-11-22 03:35:00
7:55 PM,32.0,23.0,69,30.19,10.0,East,5.8,-,N/A,,Scattered Clouds,100,2012-11-22 03:55:00
8:15 PM,32.0,23.0,69,30.20,10.0,SE,4.6,-,N/A,,Partly Cloudy,130,2012-11-22 04:15:00
8:35 PM,32.0,23.0,69,30.20,10.0,SE,5.8,-,N/A,,Clear,140,2012-11-22 04:35:00
8:55 PM,32.0,23.0,69,30.21,10.0,ESE,5.8,-,N/A,,Clear,110,2012-11-22 04:55:00
9:15 PM,30.2,23.0,75,30.22,10.0,ESE,6.9,-,N/A,,Clear,110,2012-11-22 05:15:00
9:35 PM,32.0,23.0,69,30.23,10.0,East,5.8,-,N/A,,Clear,90,2012-11-22 05:35:00
9:55 PM,32.0,23.0,69,30.25,10.0,East,5.8,-,N/A,,Clear,100,2012-11-22 05:55:00
10:15 PM,32.0,23.0,69,30.25,10.0,East,5.8,-,N/A,,Clear,100,2012-11-22 06:15:00
10:35 PM,32.0,23.0,69,30.26,10.0,ESE,6.9,-,N/A,,Clear,110,2012-11-22 06:35:00
11:15 PM,30.2,23.0,75,30.27,10.0,East,5.8,-,N/A,,Clear,100,2012-11-22 07:15:00
11:35 PM,28.4,23.0,80,30.27,10.0,East,3.5,-,N/A,,Clear,100,2012-11-22 07:35:00
11:55 PM,28.4,23.0,80,30.27,10.0,Calm,Calm,-,N/A,,Clear,0,2012-11-22 07:55:00